| time (UTC) | temp F | wind direction | speed knots | gust knots | rain 1hr in | rain 24hr in | rain mn in | humidity % | barometer mb |
| 20260906094509 | 62 | 41 | 3.5 | 8.7 | 0.00 | 0.00 | 0.00 | 89 | 1011.4 |
| 20260906093049 | 62 | 35 | 3.5 | 8.7 | 0.00 | 0.00 | 0.00 | 89 | 1011.2 |
| 20260906091509 | 62 | 43 | 3.5 | 7.8 | 0.00 | 0.00 | 0.00 | 89 | 1011.0 |
| 20260906090104 | 62 | 81 | 3.5 | 7.8 | 0.00 | 0.00 | 0.00 | 89 | 1011.0 |
| 20260906084519 | 62 | 63 | 3.5 | 7.0 | 0.00 | 0.00 | 0.00 | 89 | 1010.8 |
| 20260906083056 | 62 | 79 | 2.6 | 8.7 | 0.00 | 0.00 | 0.00 | 89 | 1010.8 |
| 20260906081542 | 62 | 30 | 4.3 | 11.3 | 0.00 | 0.00 | 0.00 | 89 | 1010.6 |
| 20260906080104 | 63 | 25 | 5.2 | 10.4 | 0.00 | 0.00 | 0.00 | 89 | 1010.5 |
| 20260906074535 | 63 | 27 | 3.5 | 10.4 | 0.00 | 0.00 | 0.00 | 89 | 1010.6 |
| 20260906073111 | 63 | 23 | 3.5 | 8.7 | 0.00 | 0.00 | 0.00 | 89 | 1010.5 |
| 20260906071527 | 63 | 53 | 3.5 | 11.3 | 0.00 | 0.00 | 0.00 | 89 | 1010.5 |
| 20260906070137 | 63 | 44 | 6.1 | 12.2 | 0.00 | 0.00 | 0.00 | 88 | 1010.6 |
| 20260906064527 | 63 | 56 | 5.2 | 11.3 | 0.00 | 0.00 | 0.00 | 89 | 1010.6 |
| 20260906063057 | 63 | 37 | 4.3 | 9.6 | 0.00 | 0.00 | 0.00 | 88 | 1010.5 |
| 20260906061526 | 63 | 19 | 2.6 | 7.8 | 0.00 | 0.00 | 0.00 | 88 | 1010.6 |
| 20260906054527 | 63 | 21 | 2.6 | 7.0 | 0.00 | 0.00 | 0.00 | 89 | 1010.8 |
| 20260906053059 | 63 | 23 | 1.7 | 7.0 | 0.00 | 0.00 | 0.00 | 88 | 1010.9 |
| 20260906051526 | 63 | 21 | 3.5 | 7.0 | 0.00 | 0.00 | 0.00 | 88 | 1011.1 |
| 20260906050116 | 63 | 360 | 4.3 | 7.0 | 0.00 | 0.00 | 0.00 | 89 | 1011.0 |
| 20260906044539 | 63 | 18 | 3.5 | 7.0 | 0.00 | 0.00 | 0.00 | 89 | 1010.9 |
| 20260906043112 | 63 | 349 | 1.7 | 6.1 | 0.00 | 0.00 | 0.00 | 89 | 1010.8 |
| 20260906041542 | 63 | 21 | 0.9 | 6.1 | 0.00 | 0.00 | 0.00 | 89 | 1010.7 |
| 20260906040009 | 63 | 358 | 1.7 | 6.1 | 0.00 | 0.00 | 0.00 | 88 | 1010.7 |
| 20260906034553 | 63 | 8 | 1.7 | 5.2 | 0.00 | 0.00 | 0.00 | 88 | 1010.8 |
| 20260906024536 | 64 | 6 | 1.7 | 5.2 | 0.00 | 0.00 | 0.00 | 87 | 1010.7 |
| 20260906023131 | 64 | 2 | 2.6 | 7.0 | 0.00 | 0.00 | 0.00 | 87 | 1010.7 |
| 20260906021524 | 64 | 19 | 0.9 | 4.3 | 0.00 | 0.00 | 0.00 | 87 | 1010.7 |
| 20260906020107 | 64 | 42 | 1.7 | 7.0 | 0.00 | 0.00 | 0.00 | 87 | 1010.6 |
| 20260906014543 | 64 | 25 | 0.9 | 6.1 | 0.00 | 0.00 | 0.00 | 87 | 1010.7 |
| 20260906013004 | 64 | 46 | 1.7 | 6.1 | 0.00 | 0.00 | 0.00 | 87 | 1010.7 |
| 20260906011552 | 64 | 51 | 0.0 | 5.2 | 0.00 | 0.00 | 0.00 | 87 | 1010.7 |
| 20260906010009 | 63 | 58 | 1.7 | 5.2 | 0.00 | 0.00 | 0.00 | 87 | 1010.6 |
| 20260906004600 | 63 | 58 | 0.9 | 5.2 | 0.00 | 0.00 | 0.00 | 86 | 1010.5 |
| 20260906003012 | 64 | 52 | 1.7 | 7.0 | 0.00 | 0.00 | 0.00 | 86 | 1010.4 |
| 20260906001550 | 64 | 31 | 2.6 | 5.2 | 0.00 | 0.00 | 0.00 | 86 | 1010.1 |
| 20260906000017 | 64 | 45 | 1.7 | 4.3 | 0.00 | 0.00 | 0.00 | 86 | 1010.0 |
| 20260905234556 | 64 | 66 | 0.9 | 4.3 | 0.00 | 0.00 | 0.00 | 85 | 1010.0 |
| 20260905233013 | 64 | 63 | 0.9 | 5.2 | 0.00 | 0.00 | 0.00 | 84 | 1010.1 |
| 20260905231536 | 64 | 52 | 2.6 | 7.8 | 0.00 | 0.00 | 0.00 | 83 | 1010.1 |
| 20260905230109 | 65 | 53 | 4.3 | 11.3 | 0.00 | 0.00 | 0.00 | 82 | 1010.1 |
| 20260905224538 | 65 | 102 | 3.5 | 7.0 | 0.00 | 0.00 | 0.00 | 83 | 1010.2 |
| 20260905223102 | 65 | 71 | 4.3 | 8.7 | 0.00 | 0.00 | 0.00 | 82 | 1010.0 |
| 20260905221536 | 66 | 54 | 5.2 | 10.4 | 0.00 | 0.00 | 0.00 | 82 | 1010.1 |
| 20260905220118 | 66 | 64 | 6.1 | 14.8 | 0.00 | 0.00 | 0.00 | 81 | 1009.6 |
| 20260905214526 | 67 | 74 | 7.0 | 13.9 | 0.00 | 0.00 | 0.00 | 81 | 1009.4 |
| 20260905213054 | 67 | 33 | 6.1 | 13.0 | 0.00 | 0.00 | 0.00 | 81 | 1009.0 |
| 20260905211523 | 68 | 37 | 4.3 | 11.3 | 0.00 | 0.00 | 0.00 | 79 | 1008.9 |
| 20260905210104 | 68 | 78 | 4.3 | 12.2 | 0.00 | 0.00 | 0.00 | 80 | 1008.7 |
| 20260905204525 | 68 | 101 | 6.1 | 13.0 | 0.00 | 0.00 | 0.00 | 80 | 1008.5 |
| 20260905203051 | 69 | 93 | 4.3 | 15.6 | 0.00 | 0.00 | 0.00 | 82 | 1008.4 |
| 20260905201507 | 70 | 15 | 3.5 | 11.3 | 0.00 | 0.00 | 0.00 | 80 | 1008.2 |
| 20260905200052 | 70 | 63 | 7.0 | 11.3 | 0.00 | 0.00 | 0.00 | 79 | 1008.1 |
| 20260905194505 | 70 | 79 | 4.3 | 13.0 | 0.00 | 0.00 | 0.00 | 79 | 1008.1 |
| 20260905193043 | 70 | 79 | 4.3 | 11.3 | 0.00 | 0.00 | 0.00 | 80 | 1008.2 |
| 20260905191507 | 71 | 72 | 6.1 | 12.2 | 0.00 | 0.00 | 0.00 | 77 | 1008.1 |
| 20260905190052 | 71 | 31 | 4.3 | 13.0 | 0.00 | 0.00 | 0.00 | 79 | 1008.2 |
| 20260905184513 | 70 | 76 | 5.2 | 12.2 | 0.00 | 0.00 | 0.00 | 79 | 1008.2 |
| 20260905183057 | 71 | 21 | 5.2 | 13.9 | 0.00 | 0.00 | 0.00 | 78 | 1008.3 |
| 20260905181520 | 72 | 57 | 5.2 | 12.2 | 0.00 | 0.00 | 0.00 | 77 | 1008.3 |
| 20260905180053 | 71 | 50 | 4.3 | 13.0 | 0.00 | 0.00 | 0.00 | 78 | 1008.3 |
| 20260905174516 | 71 | 77 | 4.3 | 11.3 | 0.00 | 0.00 | 0.00 | 77 | 1008.2 |
| 20260905154519 | 72 | 67 | 4.3 | 11.3 | 0.00 | 0.00 | 0.00 | 76 | 1007.6 |
| 20260905153059 | 73 | 53 | 4.3 | 11.3 | 0.00 | 0.00 | 0.00 | 75 | 1007.4 |
| 20260905151509 | 73 | 42 | 5.2 | 10.4 | 0.00 | 0.00 | 0.00 | 74 | 1007.5 |
| 20260905150040 | 73 | 81 | 5.2 | 11.3 | 0.00 | 0.00 | 0.00 | 76 | 1007.3 |
| 20260905144503 | 72 | 77 | 3.5 | 9.6 | 0.00 | 0.00 | 0.00 | 78 | 1007.4 |
| 20260905143041 | 72 | 51 | 4.3 | 10.4 | 0.00 | 0.00 | 0.00 | 77 | 1007.6 |
| 20260905141602 | 71 | 16 | 3.5 | 9.6 | 0.00 | 0.00 | 0.00 | 79 | 1007.5 |
| 20260905140028 | 71 | 48 | 3.5 | 7.8 | 0.00 | 0.00 | 0.00 | 79 | 1007.7 |
| 20260905134610 | 71 | 39 | 3.5 | 8.7 | 0.00 | 0.00 | 0.00 | 80 | 1007.6 |
| 20260905133036 | 71 | 37 | 3.5 | 7.8 | 0.00 | 0.00 | 0.00 | 80 | 1007.6 |
| 20260905131505 | 70 | 21 | 4.3 | 9.6 | 0.00 | 0.00 | 0.00 | 80 | 1007.5 |
| 20260905130050 | 70 | 79 | 4.3 | 8.7 | 0.00 | 0.00 | 0.00 | 81 | 1007.5 |
| 20260905124509 | 69 | 34 | 3.5 | 8.7 | 0.00 | 0.00 | 0.00 | 82 | 1007.2 |
| 20260905123043 | 69 | 37 | 5.2 | 11.3 | 0.00 | 0.00 | 0.00 | 82 | 1007.0 |
| 20260905121509 | 68 | 23 | 1.7 | 9.6 | 0.00 | 0.00 | 0.00 | 83 | 1006.8 |
| 20260905120048 | 67 | 23 | 4.3 | 8.7 | 0.00 | 0.00 | 0.00 | 84 | 1006.8 |
| 20260905114516 | 66 | 14 | 1.7 | 7.8 | 0.00 | 0.00 | 0.00 | 86 | 1006.9 |
| 20260905113101 | 66 | 10 | 3.5 | 8.7 | 0.00 | 0.00 | 0.00 | 86 | 1006.8 |
| 20260905111551 | 65 | 45 | 1.7 | 8.7 | 0.00 | 0.00 | 0.00 | 87 | 1006.7 |
| 20260905110004 | 65 | 8 | 3.5 | 9.6 | 0.00 | 0.00 | 0.00 | 88 | 1006.7 |
| 20260905104534 | 64 | 29 | 3.5 | 9.6 | 0.00 | 0.00 | 0.00 | 88 | 1006.6 |
| 20260905103002 | 64 | 8 | 3.5 | 7.8 | 0.00 | 0.00 | 0.00 | 88 | 1006.4 |
| 20260905101544 | 64 | 33 | 3.5 | 8.7 | 0.00 | 0.00 | 0.00 | 88 | 1006.1 |
| 20260905100018 | 64 | 2 | 4.3 | 9.6 | 0.00 | 0.00 | 0.00 | 88 | 1006.0 |